Temp
10 10 10 10 10 9 9 9 8 7 7 7 7 7 7 5 4 5 5 5 4 4 4 4 3 3 3 3 3 3 3 3 3 3 3 4 4 5
8 8 8 8 8 8 7 7 7 6 6 6 6 5 4 2 3 4 4 4 3 3 3 3 3 3 2 2 2 3 2 2 2 2 3 4 4 4
8 8 8 7 7 6 6 6 6 5 4 4 3 3 2 2 2 3 3 3 2 2 2 2 2 2 2 2 2 2 2 2 3 3 3 3 4 4
7 7 7 7 6 5 4 4 3 3 3 2 2 1 1 1 0 1 1 1 1 1 1 1 1 1 1 1 1 2 2 2 2 2 2 2 3 3
6 5 5 4 4 4 4 3 2 2 2 2 0 0 -0 -0 -0 -0 -0 -0 -0 -0 -0 0 0 0 1 1 1 1 1 1 1 1 1 1 1 2
3 2 3 3 2 2 1 1 1 1 1 1 0 -1 -1 -1 -1 -1 -1 -1 -1 -0 -0 -1 -0 0 -0 -0 -0 -0 -0 -0 -0 -0 0 0 0 1
0 1 1 1 1 1 1 0 0 0 0 -0 -1 -1 -1 -1 -1 -2 -2 -2 -1 -1 -1 -1 -0 -0 -0 -1 -1 -1 -2 -1 -1 -1 -0 0 1 1
0 0 0 0 0 0 0 -0 -0 -0 -0 -1 -1 -2 -2 -2 -2 -2 -2 -2 -2 -2 -2 -1 -1 -1 -1 -1 -1 -1 -1 -2 -1 -1 -0 -0 0 1
-1 -1 -1 -1 -1 -1 -1 -1 -1 -1 -1 -1 -2 -2 -2 -2 -2 -2 -2 -3 -3 -2 -3 -3 -2 -2 -1 -1 -1 -2 -2 -2 -1 -1 -1 -0 -0 0
-1 -1 -1 -1 -2 -2 -2 -2 -2 -2 -2 -2 -2 -2 -3 -3 -3 -3 -3 -4 -4 -3 -4 -5 -3 -3 -2 -1 -1 -1 -1 -2 -2 -1 -1 -1 -1 -1
-2 -2 -2 -2 -2 -3 -3 -3 -3 -3 -3 -3 -3 -3 -3 -3 -3 -3 -4 -4 -4 -4 -4 -4 -4 -4 -3 -3 -3 -3 -3 -3 -3 -2 -3 -2 -2 -2
-2 -2 -3 -3 -3 -3 -3 -3 -3 -3 -3 -3 -3 -3 -3 -3 -3 -4 -4 -4 -4 -5 -4 -5 -5 -5 -5 -4 -3 -3 -3 -3 -2 -2 -3 -3 -3 -3
-3 -3 -3 -3 -3 -3 -3 -4 -4 -4 -4 -4 -4 -4 -4 -4 -4 -4 -4 -4 -5 -5 -4 -5 -5 -6 -5 -5 -5 -4 -2 -2 -2 -2 -2 -2 -3 -4
-3 -3 -4 -4 -4 -4 -4 -4 -4 -4 -5 -5 -5 -5 -5 -5 -5 -5 -5 -5 -6 -6 -5 -6 -6 -6 -6 -6 -6 -5 -5 -5 -5 -3 -3 -3 -3 -3
-4 -4 -4 -4 -4 -4 -4 -4 -5 -5 -5 -5 -6 -6 -6 -6 -6 -6 -6 -6 -6 -6 -6 -6 -6 -6 -7 -6 -6 -6 -6 -5 -6 -6 -5 -4 -4 -4
-4 -4 -4 -5 -5 -5 -5 -5 -5 -5 -6 -6 -6 -6 -6 -7 -7 -7 -7 -7 -7 -6 -6 -6 -6 -7 -7 -7 -7 -6 -6 -7 -5 -6 -6 -6 -5 -4
-4 -4 -5 -5 -5 -5 -5 -6 -6 -6 -6 -6 -7 -7 -7 -7 -7 -7 -7 -7 -8 -8 -7 -6 -6 -7 -7 -7 -8 -8 -7 -7 -7 -6 -6 -7 -5 -5
-4 -5 -5 -6 -6 -6 -6 -6 -6 -6 -7 -7 -7 -7 -7 -7 -7 -7 -7 -8 -8 -8 -8 -7 -7 -8 -8 -7 -7 -8 -7 -7 -7 -6 -6 -7 -6 -5
-5 -5 -6 -6 -6 -6 -7 -7 -7 -7 -7 -7 -7 -7 -7 -8 -8 -8 -8 -9 -9 -9 -8 -8 -8 -9 -9 -9 -7 -6 -6 -6 -6 -6 -6 -7 -7 -6
-5 -6 -6 -6 -6 -7 -7 -7 -7 -7 -7 -7 -7 -7 -8 -8 -8 -8 -8 -9 -9 -9 -9 -8 -8 -8 -9 -9 -8 -7 -7 -6 -6 -6 -6 -7 -6 -6
-5 -6 -6 -6 -7 -7 -7 -7 -8 -8 -7 -7 -8 -8 -7 -8 -8 -8 -8 -9 -8 -8 -8 -8 -7 -8 -7 -8 -8 -7 -7 -6 -7 -7 -7 -7 -6 -6
-6 -6 -6 -6 -7 -7 -7 -7 -8 -7 -7 -7 -7 -7 -7 -8 -8 -9 -9 -10 -10 -10 -9 -9 -8 -8 -9 -9 -8 -8 -8 -7 -7 -6 -6 -6 -6 -5
-6 -6 -6 -6 -7 -7 -7 -7 -7 -7 -7 -7 -7 -7 -8 -8 -8 -8 -9 -9 -9 -10 -10 -9 -9 -8 -9 -9 -8 -7 -7 -7 -7 -7 -6 -6 -6 -5
Height
796 797 797 798 798 798 799 800 799 798 796 795 797 794 794 794 798 795 797 800 804 808 813 818 817 819 821 822 825 825 824 825 826 826 827 826 828 827
794 795 795 796 796 797 798 798 799 800 798 795 794 793 793 795 795 793 796 802 802 808 812 812 813 814 817 819 819 819 820 820 821 821 821 822 823 822
795 795 794 795 796 795 796 796 796 797 796 793 792 791 793 794 795 796 799 801 803 809 807 809 810 811 811 813 814 815 815 816 816 816 816 818 819 819
793 793 793 794 794 793 794 794 795 796 795 794 794 792 792 794 795 797 800 801 801 804 804 805 806 807 807 808 810 812 812 811 813 812 812 813 813 814
790 790 791 791 790 792 793 793 793 794 794 793 794 793 794 794 796 797 798 799 798 800 801 801 802 804 803 804 806 807 807 808 808 808 808 808 808 809
791 792 792 791 792 793 793 793 794 794 793 792 793 793 794 794 795 797 798 798 798 798 798 800 800 800 798 800 801 802 803 803 803 803 803 804 804 804
794 794 795 795 797 796 795 795 795 795 794 794 794 794 795 796 796 797 797 797 797 796 796 796 794 793 794 796 795 794 796 798 799 799 799 800 801 801
798 799 799 800 800 799 798 796 796 795 794 795 796 796 797 797 797 798 798 798 797 794 793 792 793 792 792 790 789 789 790 794 795 795 796 795 797 796
801 801 802 802 801 800 798 798 798 797 797 797 797 797 797 797 798 798 798 797 797 796 795 790 790 788 787 786 785 785 789 791 791 793 791 790 791 791
802 803 803 803 802 800 799 799 799 798 797 797 797 796 796 797 797 796 796 796 795 793 793 791 787 785 783 782 782 782 783 785 787 787 786 786 786 785
803 804 804 803 803 801 800 800 799 798 798 797 796 796 796 795 795 794 795 794 792 791 791 790 786 783 779 777 776 777 779 780 781 782 782 780 779 779
804 804 805 804 803 802 800 799 798 797 796 795 795 794 793 793 793 792 792 792 793 791 790 790 787 786 780 776 777 778 778 777 776 775 774 774 773 771
804 804 804 804 803 802 800 799 798 797 796 794 793 792 792 791 791 791 791 791 791 791 790 789 786 785 786 781 774 772 773 772 771 770 769 767 765 765
804 804 803 803 802 800 799 798 798 796 795 793 793 792 791 790 790 790 790 789 788 787 787 786 784 783 782 780 774 768 769 767 766 763 762 761 759 759
804 803 802 801 800 798 797 797 795 794 793 793 792 791 791 790 789 788 787 785 784 782 781 780 779 779 779 776 771 766 765 759 759 757 754 753 752 751
802 801 800 799 798 797 796 795 794 793 792 792 791 790 788 788 787 786 784 783 780 776 777 776 775 774 772 770 768 762 760 759 751 750 749 746 744 742
801 799 799 797 797 796 794 793 793 792 791 790 789 789 788 786 785 784 782 780 778 774 770 770 770 768 766 764 760 756 751 748 746 743 742 738 735 733
798 797 796 796 795 794 793 791 791 790 789 788 787 786 785 784 781 779 778 777 774 770 767 765 764 762 757 752 750 745 744 742 739 737 736 733 726 723
796 795 793 793 792 791 790 789 787 787 786 785 783 782 780 779 777 775 773 771 768 765 761 760 759 758 755 749 741 741 737 735 733 730 727 724 719 711
793 792 791 790 789 788 787 786 784 783 781 780 778 777 775 773 771 768 767 765 762 758 754 753 752 751 750 745 738 732 733 730 726 720 716 714 709 705
789 788 787 786 785 784 783 782 780 778 777 774 772 771 769 768 764 762 760 759 757 753 749 745 743 744 741 738 731 720 719 720 718 713 708 707 701 695
785 784 783 782 781 780 778 776 774 773 771 769 767 765 763 762 758 756 754 751 749 747 742 737 734 733 732 730 721 714 708 706 705 702 700 699 695 686
781 780 779 777 776 775 773 771 769 767 765 763 760 758 757 754 752 750 747 745 742 738 735 729 727 726 722 720 714 706 701 697 694 689 683 683 679 676
Wind_Speed
5 8 9 11 12 12 15 18 9 3 2 6 7 12 18 21 25 25 31 28 26 26 25 25 19 21 22 18 18 17 16 16 16 16 17 18 19 19
5 5 4 6 7 7 7 8 9 7 3 2 7 14 12 14 16 22 26 27 22 20 21 19 19 18 19 17 19 19 16 16 16 17 18 19 20 19
7 6 7 7 7 7 7 6 6 8 5 6 7 9 10 10 16 17 21 24 21 19 16 15 14 15 17 17 16 16 16 17 17 17 18 19 19 19
3 5 6 6 7 6 5 4 5 6 4 3 5 4 6 9 15 14 17 17 17 17 19 18 18 17 17 15 15 16 15 15 17 18 18 17 18 18
3 3 3 3 3 3 3 3 2 3 3 2 2 3 3 6 9 11 13 14 14 13 12 13 14 13 12 12 12 14 16 18 17 16 15 16 17 17
8 8 7 6 4 2 3 4 3 3 4 4 3 2 2 1 4 6 7 7 8 7 6 9 9 12 10 12 14 16 17 17 17 17 17 17 17 16
12 13 13 12 9 7 6 6 5 5 5 5 4 3 3 2 1 1 2 3 4 6 8 10 12 15 18 19 20 20 17 16 16 16 15 15 16 17
10 9 7 6 9 10 9 9 7 5 5 3 2 1 0 0 1 1 2 1 3 3 6 13 15 20 20 17 15 15 15 16 15 15 15 16 16 17
9 8 7 7 5 4 4 3 3 4 5 2 1 1 1 1 0 1 3 4 6 11 12 16 14 16 10 9 10 12 15 16 15 15 14 14 15 16
9 8 8 7 8 7 6 5 5 5 5 3 3 3 3 3 5 6 6 8 9 12 10 6 9 15 13 11 17 20 19 16 15 12 11 14 16 17
7 7 8 7 7 7 8 6 5 3 1 2 2 3 3 4 5 7 7 9 8 4 5 8 7 15 20 11 3 1 3 7 9 12 13 13 16 18
4 3 4 7 6 7 11 10 9 7 8 9 9 9 9 8 7 8 8 8 6 5 2 3 4 8 8 5 4 5 9 11 15 18 15 18 19 20
6 7 6 6 8 8 8 9 9 9 9 11 10 7 5 4 2 2 4 5 7 10 9 8 5 6 7 10 19 19 19 23 17 24 22 20 18 17
7 7 8 7 8 9 9 9 7 8 10 7 6 6 6 6 6 8 9 11 12 15 15 14 11 11 11 16 14 14 22 28 29 27 21 24 17 17
7 7 10 10 9 10 9 7 8 8 7 6 7 7 8 9 10 11 12 11 13 16 17 17 18 19 20 19 23 24 22 15 23 30 18 19 26 24
7 8 10 8 7 7 8 6 7 7 7 8 9 10 11 10 9 8 14 14 18 19 12 12 11 13 20 24 23 28 28 17 21 27 29 30 30 30
9 10 9 7 6 8 7 7 7 7 7 9 9 9 9 10 11 16 15 15 17 20 24 21 16 16 19 24 25 28 30 28 29 33 29 29 31 31
10 10 9 6 8 9 9 9 9 9 9 8 10 11 12 15 21 21 17 18 20 21 23 25 23 21 15 17 23 30 26 25 26 26 28 25 30 33
9 9 10 10 11 10 11 11 14 12 12 12 14 16 18 18 18 21 22 20 18 20 24 25 23 19 7 8 17 20 28 28 28 30 29 27 30 38
11 10 11 11 12 13 14 14 15 15 16 16 17 16 17 20 21 22 23 23 23 23 23 23 21 21 15 9 15 27 23 28 29 31 31 29 33 33
13 13 13 13 14 15 16 16 17 19 19 19 20 21 21 20 23 24 25 21 20 20 21 21 25 19 22 24 17 26 28 25 28 32 28 25 27 30
14 14 15 15 16 17 18 19 20 21 22 22 23 23 22 22 23 25 25 23 20 20 24 30 29 25 23 19 24 26 28 26 27 29 32 33 30 10
14 15 16 17 17 18 20 21 21 23 23 24 25 25 24 24 25 25 25 24 24 24 23 27 24 21 23 24 28 30 32 32 29 28 32 30 33 38
Wind_Direction
309 307 307 299 292 284 277 266 237 270 259 291 277 285 269 256 251 235 231 211 200 205 211 235 245 251 252 254 263 267 269 268 268 271 274 276 275 276
18 12 341 332 329 313 305 296 281 284 291 290 290 279 279 266 249 217 221 204 201 216 236 246 255 254 261 256 263 266 261 263 268 272 275 274 275 275
11 5 5 350 341 353 347 326 292 266 256 282 294 290 278 245 211 215 211 214 216 230 242 256 258 252 259 267 269 264 265 267 268 270 273 274 275 273
13 354 353 327 339 338 323 311 298 284 271 302 307 294 255 215 232 226 227 234 239 247 256 254 257 260 262 266 265 266 267 268 271 272 271 271 273 274
47 24 14 350 351 333 294 284 298 286 272 273 336 358 299 255 231 235 241 250 255 257 256 255 254 259 263 261 265 269 273 272 271 272 270 270 272 273
56 51 43 40 40 54 79 74 75 67 67 74 59 42 37 328 232 243 244 252 263 271 258 253 250 249 260 266 268 270 271 267 267 266 268 270 270 269
66 67 64 59 51 54 67 69 62 53 47 48 51 37 34 38 80 291 266 271 266 251 254 253 265 271 271 268 270 269 268 264 262 265 264 263 266 268
65 59 65 71 74 68 73 65 51 55 58 43 34 68 80 37 16 323 306 327 311 336 318 296 284 282 281 276 267 265 262 262 261 261 263 264 267 268
64 52 43 43 31 22 45 47 59 50 42 12 30 13 5 28 51 332 304 300 286 297 305 296 299 292 293 278 270 262 257 255 253 257 264 267 267 268
61 48 39 36 29 7 17 14 25 35 29 23 24 19 2 337 321 310 305 299 300 304 290 268 303 309 314 294 284 267 255 253 260 259 261 271 274 275
56 47 30 32 21 11 360 357 346 357 23 350 331 318 313 294 311 297 292 298 319 311 297 276 315 328 319 320 300 44 189 203 230 268 277 280 281 279
27 13 9 4 3 354 344 346 339 331 321 311 304 295 290 287 276 271 273 272 270 297 297 252 295 342 325 312 331 257 245 253 282 285 281 289 287 283
353 348 345 345 336 332 329 322 324 317 312 318 320 325 326 323 299 281 277 271 263 254 281 294 287 305 291 291 306 299 285 280 279 287 288 290 286 274
342 336 339 335 326 326 321 315 313 303 314 322 330 335 333 319 302 294 289 287 282 281 285 276 269 269 260 281 284 289 292 292 293 289 286 295 279 273
323 324 319 313 310 310 321 319 307 316 320 327 325 325 323 315 310 311 306 292 292 289 287 280 271 273 269 264 272 285 298 289 281 283 285 286 294 291
323 320 324 309 300 303 309 303 308 314 316 312 314 316 316 317 312 319 318 309 310 309 308 298 273 272 272 267 268 273 275 268 281 281 286 290 292 292
315 313 319 316 308 313 307 304 305 306 304 308 308 310 307 304 297 316 312 307 297 299 305 308 305 291 278 271 267 264 266 269 270 280 284 282 289 289
296 293 296 298 306 307 305 302 298 299 295 288 289 288 290 294 300 306 303 297 290 290 291 303 308 308 305 289 257 256 263 266 274 279 283 273 283 286
290 286 280 287 294 294 295 296 295 298 296 292 286 285 289 292 294 295 297 295 284 282 287 296 297 288 278 278 279 269 260 268 275 278 275 264 266 278
282 282 287 292 292 290 291 295 298 296 293 293 292 291 292 295 295 292 294 290 288 288 284 287 284 272 250 266 282 283 274 270 268 268 272 274 275 282
278 279 285 289 289 290 290 292 294 296 297 297 296 296 296 296 293 291 292 285 284 281 282 279 284 287 283 288 274 273 278 273 264 262 271 273 279 284
278 279 284 286 287 288 291 293 293 293 295 295 295 296 297 297 291 291 293 287 282 275 276 286 297 293 285 263 271 279 286 287 282 273 266 263 264 265
280 280 284 285 287 289 291 293 294 295 296 297 299 300 301 297 296 295 293 289 283 280 277 280 283 281 270 266 272 278 280 283 285 283 277 270 264 264